Time,TemperatureF,DewpointF,PressureIn,WindDirection,WindDirectionDegrees,WindSpeedMPH,WindSpeedGustMPH,Humidity,HourlyPrecipIn,Conditions,Clouds,dailyrainin,SolarRadiationWatts/m^2,SoftwareType,DateUTC
2013-09-06 00:00:00,66.6,53.2,29.62,WSW,245,1.0,2.0,62,0.00,,,0.00,0,Wunderground v.1.15,2013-09-06 06:00:00,
2013-09-06 00:05:00,66.3,52.9,29.62,WSW,244,2.0,2.0,62,0.00,,,0.00,0,Wunderground v.1.15,2013-09-06 06:05:00,
2013-09-06 00:15:00,66.1,53.1,29.62,WSW,244,1.0,2.0,63,0.00,,,0.00,0,Wunderground v.1.15,2013-09-06 06:15:00,
2013-09-06 00:20:00,66.1,52.7,29.62,WSW,244,0.0,2.0,62,0.00,,,0.00,0,Wunderground v.1.15,2013-09-06 06:20:00,
2013-09-06 00:25:00,66.0,52.6,29.62,WSW,245,1.0,2.0,62,0.00,,,0.00,0,Wunderground v.1.15,2013-09-06 06:25:00,
2013-09-06 00:30:00,66.0,52.6,29.62,WSW,244,2.0,3.0,62,0.00,,,0.00,0,Wunderground v.1.15,2013-09-06 06:30:00,
2013-09-06 00:35:00,66.0,53.0,29.62,WSW,244,2.0,3.0,63,0.00,,,0.00,0,Wunderground v.1.15,2013-09-06 06:35:00,
2013-09-06 00:40:00,66.0,52.6,29.62,WSW,244,2.0,2.0,62,0.00,,,0.00,0,Wunderground v.1.15,2013-09-06 06:40:00,
2013-09-06 00:50:00,66.1,52.7,29.62,WSW,244,1.0,1.0,62,0.00,,,0.00,0,Wunderground v.1.15,2013-09-06 06:50:00,
2013-09-06 00:55:00,66.0,52.6,29.62,WSW,245,1.0,1.0,62,0.00,,,0.00,0,Wunderground v.1.15,2013-09-06 06:55:00,
2013-09-06 01:00:00,66.0,52.6,29.62,WSW,244,0.0,1.0,62,0.00,,,0.00,0,Wunderground v.1.15,2013-09-06 07:00:00,
2013-09-06 01:05:00,66.0,52.6,29.63,WSW,244,1.0,1.0,62,0.00,,,0.00,0,Wunderground v.1.15,2013-09-06 07:05:00,
2013-09-06 01:10:00,65.8,52.4,29.63,WNW,303,1.0,5.0,62,0.00,,,0.00,0,Wunderground v.1.15,2013-09-06 07:10:00,
2013-09-06 01:20:00,67.2,51.9,29.63,NW,308,8.0,8.0,58,0.00,,,0.00,0,Wunderground v.1.15,2013-09-06 07:20:00,
2013-09-06 01:25:00,67.2,52.8,29.63,NNE,12,5.0,8.0,60,0.00,,,0.00,0,Wunderground v.1.15,2013-09-06 07:25:00,
2013-09-06 01:30:00,66.7,52.4,29.63,NE,36,2.0,2.0,60,0.00,,,0.00,0,Wunderground v.1.15,2013-09-06 07:30:00,
2013-09-06 01:40:00,65.9,52.1,29.63,WNW,303,2.0,2.0,61,0.00,,,0.00,0,Wunderground v.1.15,2013-09-06 07:40:00,
2013-09-06 01:45:00,65.5,51.7,29.63,West,278,3.0,5.0,61,0.00,,,0.00,0,Wunderground v.1.15,2013-09-06 07:45:00,
2013-09-06 01:50:00,65.2,51.8,29.63,WNW,291,4.0,7.0,62,0.00,,,0.00,0,Wunderground v.1.15,2013-09-06 07:50:00,
2013-09-06 01:55:00,65.0,51.2,29.63,WNW,286,5.0,7.0,61,0.00,,,0.00,0,Wunderground v.1.15,2013-09-06 07:55:00,
2013-09-06 02:00:00,65.0,51.7,29.63,NW,307,4.0,4.0,62,0.00,,,0.00,0,Wunderground v.1.15,2013-09-06 08:00:00,
2013-09-06 02:05:00,64.8,51.0,29.63,WNW,283,3.0,4.0,61,0.00,,,0.00,0,Wunderground v.1.15,2013-09-06 08:05:00,
2013-09-06 02:10:00,64.7,50.9,29.63,WNW,282,2.0,2.0,61,0.00,,,0.00,0,Wunderground v.1.15,2013-09-06 08:10:00,
2013-09-06 02:20:00,64.7,50.9,29.63,WNW,283,0.0,0.0,61,0.00,,,0.00,0,Wunderground v.1.15,2013-09-06 08:20:00,
2013-09-06 02:25:00,64.7,50.9,29.63,WNW,282,1.0,1.0,61,0.00,,,0.00,0,Wunderground v.1.15,2013-09-06 08:25:00,
2013-09-06 02:30:00,64.8,51.0,29.63,WNW,301,1.0,2.0,61,0.00,,,0.00,0,Wunderground v.1.15,2013-09-06 08:30:00,
2013-09-06 02:35:00,64.8,51.0,29.63,WNW,300,2.0,2.0,61,0.00,,,0.00,0,Wunderground v.1.15,2013-09-06 08:35:00,
2013-09-06 02:45:00,64.7,50.9,29.63,WNW,301,2.0,2.0,61,0.00,,,0.00,0,Wunderground v.1.15,2013-09-06 08:45:00,
2013-09-06 02:50:00,64.7,50.9,29.63,WNW,301,1.0,1.0,61,0.00,,,0.00,0,Wunderground v.1.15,2013-09-06 08:50:00,
2013-09-06 02:55:00,64.7,50.9,29.63,WNW,301,0.0,1.0,61,0.00,,,0.00,0,Wunderground v.1.15,2013-09-06 08:55:00,
2013-09-06 03:00:00,64.7,50.9,29.63,WNW,301,0.0,0.0,61,0.00,,,0.00,0,Wunderground v.1.15,2013-09-06 09:00:00,
2013-09-06 03:05:00,64.6,50.8,29.63,WNW,301,0.0,0.0,61,0.00,,,0.00,0,Wunderground v.1.15,2013-09-06 09:05:00,
2013-09-06 03:10:00,64.6,50.8,29.63,WNW,301,0.0,0.0,61,0.00,,,0.00,0,Wunderground v.1.15,2013-09-06 09:10:00,
2013-09-06 03:15:00,64.5,51.2,29.64,WNW,301,1.0,3.0,62,0.00,,,0.00,0,Wunderground v.1.15,2013-09-06 09:15:00,
2013-09-06 03:25:00,64.1,51.2,29.64,NW,310,2.0,2.0,63,0.00,,,0.00,0,Wunderground v.1.15,2013-09-06 09:25:00,
2013-09-06 03:30:00,63.9,51.1,29.64,NW,310,1.0,1.0,63,0.00,,,0.00,0,Wunderground v.1.15,2013-09-06 09:30:00,
2013-09-06 03:35:00,63.8,51.0,29.64,NW,310,1.0,2.0,63,0.00,,,0.00,0,Wunderground v.1.15,2013-09-06 09:35:00,
2013-09-06 03:45:00,63.5,50.7,29.64,NW,310,2.0,2.0,63,0.00,,,0.00,0,Wunderground v.1.15,2013-09-06 09:45:00,
2013-09-06 03:55:00,63.3,50.9,29.64,NW,310,1.0,2.0,64,0.00,,,0.00,0,Wunderground v.1.15,2013-09-06 09:55:00,
2013-09-06 04:00:00,63.2,50.8,29.65,NW,310,0.0,1.0,64,0.00,,,0.00,0,Wunderground v.1.15,2013-09-06 10:00:00,
2013-09-06 04:05:00,63.0,50.6,29.65,NW,310,0.0,2.0,64,0.00,,,0.00,0,Wunderground v.1.15,2013-09-06 10:05:00,
2013-09-06 04:15:00,62.6,50.7,29.65,NW,310,2.0,3.0,65,0.00,,,0.00,0,Wunderground v.1.15,2013-09-06 10:15:00,
2013-09-06 04:20:00,62.5,50.6,29.65,NW,310,2.0,2.0,65,0.00,,,0.00,0,Wunderground v.1.15,2013-09-06 10:20:00,
2013-09-06 04:25:00,62.3,50.4,29.65,NW,310,1.0,2.0,65,0.00,,,0.00,0,Wunderground v.1.15,2013-09-06 10:25:00,
2013-09-06 04:30:00,62.3,50.4,29.65,NW,310,1.0,1.0,65,0.00,,,0.00,0,Wunderground v.1.15,2013-09-06 10:30:00,
2013-09-06 04:35:00,62.2,50.3,29.65,NW,324,1.0,4.0,65,0.00,,,0.00,0,Wunderground v.1.15,2013-09-06 10:35:00,
2013-09-06 04:40:00,62.0,50.5,29.65,WNW,293,2.0,3.0,66,0.00,,,0.00,0,Wunderground v.1.15,2013-09-06 10:40:00,
2013-09-06 04:45:00,62.0,50.5,29.65,WNW,293,3.0,3.0,66,0.00,,,0.00,0,Wunderground v.1.15,2013-09-06 10:45:00,
2013-09-06 04:50:00,62.0,50.1,29.65,WNW,293,1.0,1.0,65,0.00,,,0.00,0,Wunderground v.1.15,2013-09-06 10:50:00,
2013-09-06 05:00:00,62.0,49.7,29.65,WNW,287,1.0,1.0,64,0.00,,,0.00,0,Wunderground v.1.15,2013-09-06 11:00:00,
2013-09-06 05:05:00,62.0,49.7,29.65,WNW,287,1.0,1.0,64,0.00,,,0.00,0,Wunderground v.1.15,2013-09-06 11:05:00,
2013-09-06 05:10:00,61.9,49.6,29.65,WNW,287,0.0,1.0,64,0.00,,,0.00,0,Wunderground v.1.15,2013-09-06 11:10:00,
2013-09-06 05:20:00,61.8,50.3,29.66,WNW,288,0.0,0.0,66,0.00,,,0.00,0,Wunderground v.1.15,2013-09-06 11:20:00,
2013-09-06 05:30:00,61.5,50.0,29.66,WNW,288,0.0,2.0,66,0.00,,,0.00,0,Wunderground v.1.15,2013-09-06 11:30:00,
2013-09-06 05:40:00,61.2,49.7,29.66,WNW,288,2.0,2.0,66,0.00,,,0.00,0,Wunderground v.1.15,2013-09-06 11:40:00,
2013-09-06 05:45:00,61.1,50.1,29.66,WNW,288,2.0,2.0,67,0.00,,,0.00,0,Wunderground v.1.15,2013-09-06 11:45:00,
2013-09-06 05:55:00,60.9,49.9,29.66,WNW,288,0.0,1.0,67,0.00,,,0.00,0,Wunderground v.1.15,2013-09-06 11:55:00,
2013-09-06 06:00:00,60.8,50.2,29.66,WNW,288,0.0,1.0,68,0.00,,,0.00,0,Wunderground v.1.15,2013-09-06 12:00:00,
2013-09-06 06:10:00,60.5,49.9,29.67,WNW,288,1.0,3.0,68,0.00,,,0.00,0,Wunderground v.1.15,2013-09-06 12:10:00,
2013-09-06 06:15:00,60.3,50.1,29.67,WNW,288,2.0,3.0,69,0.00,,,0.00,0,Wunderground v.1.15,2013-09-06 12:15:00,
2013-09-06 06:20:00,60.2,50.0,29.67,WNW,288,2.0,3.0,69,0.00,,,0.00,0,Wunderground v.1.15,2013-09-06 12:20:00,
2013-09-06 06:25:00,60.3,49.7,29.67,WNW,288,2.0,3.0,68,0.00,,,0.00,0,Wunderground v.1.15,2013-09-06 12:25:00,
2013-09-06 06:30:00,60.4,49.8,29.67,WNW,288,1.0,2.0,68,0.00,,,0.00,0,Wunderground v.1.15,2013-09-06 12:30:00,
2013-09-06 06:40:00,60.2,49.2,29.67,SW,232,2.0,2.0,67,0.00,,,0.00,0,Wunderground v.1.15,2013-09-06 12:40:00,
2013-09-06 06:45:00,60.2,49.2,29.67,SW,232,1.0,2.0,67,0.00,,,0.00,0,Wunderground v.1.15,2013-09-06 12:45:00,
2013-09-06 06:50:00,60.1,49.5,29.67,SW,232,0.0,0.0,68,0.00,,,0.00,5,Wunderground v.1.15,2013-09-06 12:50:00,
2013-09-06 07:00:00,60.1,49.5,29.68,SW,232,0.0,1.0,68,0.00,,,0.00,9,Wunderground v.1.15,2013-09-06 13:00:00,
2013-09-06 07:05:00,60.2,49.6,29.68,SW,233,1.0,1.0,68,0.00,,,0.00,11,Wunderground v.1.15,2013-09-06 13:05:00,
2013-09-06 07:10:00,60.3,49.7,29.67,WSW,238,1.0,1.0,68,0.00,,,0.00,12,Wunderground v.1.15,2013-09-06 13:10:00,
2013-09-06 07:15:00,60.4,49.8,29.68,WSW,238,1.0,1.0,68,0.00,,,0.00,14,Wunderground v.1.15,2013-09-06 13:15:00,
2013-09-06 07:25:00,60.5,50.3,29.68,WSW,239,1.0,1.0,69,0.00,,,0.00,18,Wunderground v.1.15,2013-09-06 13:25:00,
2013-09-06 07:30:00,60.6,50.4,29.68,WSW,239,0.0,0.0,69,0.00,,,0.00,19,Wunderground v.1.15,2013-09-06 13:30:00,
2013-09-06 07:40:00,60.7,50.9,29.68,WSW,238,1.0,1.0,70,0.00,,,0.00,21,Wunderground v.1.15,2013-09-06 13:40:00,
2013-09-06 07:50:00,60.7,50.5,29.68,WSW,238,1.0,1.0,69,0.00,,,0.00,23,Wunderground v.1.15,2013-09-06 13:50:00,
2013-09-06 07:55:00,60.8,50.6,29.67,WSW,239,1.0,1.0,69,0.00,,,0.00,25,Wunderground v.1.15,2013-09-06 13:55:00,
2013-09-06 08:00:00,60.8,50.2,29.67,WSW,238,0.0,1.0,68,0.00,,,0.00,25,Wunderground v.1.15,2013-09-06 14:00:00,
2013-09-06 08:10:00,61.2,51.3,29.68,WSW,239,0.0,2.0,70,0.00,,,0.00,26,Wunderground v.1.15,2013-09-06 14:10:00,
2013-09-06 08:15:00,61.3,51.0,29.67,WSW,239,1.0,2.0,69,0.00,,,0.00,28,Wunderground v.1.15,2013-09-06 14:15:00,
2013-09-06 08:20:00,61.5,51.6,29.68,WSW,239,0.0,1.0,70,0.00,,,0.00,28,Wunderground v.1.15,2013-09-06 14:20:00,
2013-09-06 08:25:00,61.7,51.4,29.68,WSW,239,0.0,1.0,69,0.00,,,0.00,28,Wunderground v.1.15,2013-09-06 14:25:00,
2013-09-06 08:35:00,62.0,51.3,29.67,WSW,238,0.0,0.0,68,0.00,,,0.00,30,Wunderground v.1.15,2013-09-06 14:35:00,
2013-09-06 08:40:00,62.3,51.6,29.67,WSW,238,1.0,1.0,68,0.00,,,0.00,299,Wunderground v.1.15,2013-09-06 14:40:00,
2013-09-06 08:50:00,62.9,52.2,29.67,WSW,238,0.0,0.0,68,0.00,,,0.00,327,Wunderground v.1.15,2013-09-06 14:50:00,
2013-09-06 08:55:00,63.6,52.4,29.67,SSE,152,1.0,2.0,67,0.00,,,0.00,341,Wunderground v.1.15,2013-09-06 14:55:00,
2013-09-06 09:00:00,64.1,52.9,29.67,SSE,152,1.0,1.0,67,0.00,,,0.00,357,Wunderground v.1.15,2013-09-06 15:00:00,
2013-09-06 09:05:00,64.9,52.8,29.67,SSE,152,1.0,1.0,65,0.00,,,0.00,374,Wunderground v.1.15,2013-09-06 15:05:00,
2013-09-06 09:15:00,66.3,52.4,29.67,SSE,152,1.0,2.0,61,0.00,,,0.00,406,Wunderground v.1.15,2013-09-06 15:15:00,
2013-09-06 09:20:00,67.3,52.5,29.66,SSE,152,2.0,3.0,59,0.00,,,0.00,417,Wunderground v.1.15,2013-09-06 15:20:00,
2013-09-06 09:25:00,67.9,52.6,29.66,SSE,152,2.0,3.0,58,0.00,,,0.00,434,Wunderground v.1.15,2013-09-06 15:25:00,
2013-09-06 09:35:00,69.1,53.7,29.66,SSE,152,2.0,2.0,58,0.00,,,0.00,471,Wunderground v.1.15,2013-09-06 15:35:00,
2013-09-06 09:40:00,69.7,53.8,29.66,SSE,152,2.0,2.0,57,0.00,,,0.00,482,Wunderground v.1.15,2013-09-06 15:40:00,
2013-09-06 09:45:00,70.0,53.6,29.66,SSE,152,2.0,2.0,56,0.00,,,0.00,492,Wunderground v.1.15,2013-09-06 15:45:00,
2013-09-06 09:55:00,71.0,53.0,29.66,SSE,152,1.0,2.0,53,0.00,,,0.00,519,Wunderground v.1.15,2013-09-06 15:55:00,
2013-09-06 10:00:00,71.7,53.1,29.66,SE,137,2.0,2.0,52,0.00,,,0.00,531,Wunderground v.1.15,2013-09-06 16:00:00,
2013-09-06 10:05:00,72.4,53.8,29.66,SE,137,2.0,2.0,52,0.00,,,0.00,541,Wunderground v.1.15,2013-09-06 16:05:00,
2013-09-06 10:10:00,72.9,53.7,29.65,East,99,2.0,2.0,51,0.00,,,0.00,555,Wunderground v.1.15,2013-09-06 16:10:00,
2013-09-06 10:15:00,73.5,53.7,29.66,East,99,2.0,2.0,50,0.00,,,0.00,570,Wunderground v.1.15,2013-09-06 16:15:00,
2013-09-06 10:25:00,74.4,54.0,29.65,East,100,2.0,2.0,49,0.00,,,0.00,592,Wunderground v.1.15,2013-09-06 16:25:00,
2013-09-06 10:30:00,74.9,53.9,29.65,East,92,2.0,2.0,48,0.00,,,0.00,601,Wunderground v.1.15,2013-09-06 16:30:00,
2013-09-06 10:35:00,75.5,54.4,29.65,East,79,2.0,2.0,48,0.00,,,0.00,615,Wunderground v.1.15,2013-09-06 16:35:00,
2013-09-06 10:40:00,76.2,54.5,29.65,ENE,57,2.0,2.0,47,0.00,,,0.00,631,Wunderground v.1.15,2013-09-06 16:40:00,
2013-09-06 10:45:00,77.0,54.6,29.65,ESE,103,2.0,3.0,46,0.00,,,0.00,642,Wunderground v.1.15,2013-09-06 16:45:00,
2013-09-06 10:50:00,77.8,55.4,29.64,ENE,71,2.0,4.0,46,0.00,,,0.00,657,Wunderground v.1.15,2013-09-06 16:50:00,
2013-09-06 10:55:00,78.4,55.3,29.64,NE,36,2.0,4.0,45,0.00,,,0.00,664,Wunderground v.1.15,2013-09-06 16:55:00,
2013-09-06 11:00:00,79.0,55.8,29.64,East,90,1.0,2.0,45,0.00,,,0.00,675,Wunderground v.1.15,2013-09-06 17:00:00,
2013-09-06 11:05:00,79.6,55.8,29.65,ENE,60,1.0,3.0,44,0.00,,,0.00,689,Wunderground v.1.15,2013-09-06 17:05:00,
2013-09-06 11:10:00,80.1,56.2,29.65,ESE,108,2.0,2.0,44,0.00,,,0.00,698,Wunderground v.1.15,2013-09-06 17:10:00,
2013-09-06 11:15:00,80.6,56.7,29.64,SE,126,2.0,2.0,44,0.00,,,0.00,715,Wunderground v.1.15,2013-09-06 17:15:00,
2013-09-06 11:25:00,82.1,56.7,29.64,East,79,2.0,3.0,42,0.00,,,0.00,752,Wunderground v.1.15,2013-09-06 17:25:00,
2013-09-06 11:30:00,82.5,57.1,29.64,SE,138,2.0,2.0,42,0.00,,,0.00,765,Wunderground v.1.15,2013-09-06 17:30:00,
2013-09-06 11:35:00,83.3,57.1,29.63,East,95,3.0,3.0,41,0.00,,,0.00,759,Wunderground v.1.15,2013-09-06 17:35:00,
2013-09-06 11:40:00,84.4,58.1,29.63,ENE,77,3.0,3.0,41,0.00,,,0.00,759,Wunderground v.1.15,2013-09-06 17:40:00,
2013-09-06 11:50:00,85.6,57.8,29.63,East,85,3.0,3.0,39,0.00,,,0.00,779,Wunderground v.1.15,2013-09-06 17:50:00,
2013-09-06 12:00:00,86.0,57.4,29.62,SW,214,2.0,2.0,38,0.00,,,0.00,784,Wunderground v.1.15,2013-09-06 18:00:00,
2013-09-06 12:05:00,86.6,58.0,29.62,NNE,22,2.0,4.0,38,0.00,,,0.00,784,Wunderground v.1.15,2013-09-06 18:05:00,
2013-09-06 12:15:00,86.6,58.0,29.61,SE,145,2.0,3.0,38,0.00,,,0.00,371,Wunderground v.1.15,2013-09-06 18:15:00,
2013-09-06 12:20:00,86.3,57.7,29.62,East,101,2.0,2.0,38,0.00,,,0.00,846,Wunderground v.1.15,2013-09-06 18:20:00,
2013-09-06 12:25:00,86.3,57.7,29.61,NNE,22,2.0,2.0,38,0.00,,,0.00,861,Wunderground v.1.15,2013-09-06 18:25:00,
2013-09-06 12:30:00,87.4,57.9,29.60,ESE,116,2.0,3.0,37,0.00,,,0.00,837,Wunderground v.1.15,2013-09-06 18:30:00,
2013-09-06 12:40:00,88.0,56.9,29.60,ENE,73,3.0,3.0,35,0.00,,,0.00,954,Wunderground v.1.15,2013-09-06 18:40:00,
2013-09-06 12:50:00,88.6,56.6,29.59,East,99,4.0,5.0,34,0.00,,,0.00,661,Wunderground v.1.15,2013-09-06 18:50:00,
2013-09-06 12:55:00,88.8,56.0,29.59,ESE,114,4.0,6.0,33,0.00,,,0.00,353,Wunderground v.1.15,2013-09-06 18:55:00,
2013-09-06 13:00:00,88.3,56.4,29.59,ENE,76,4.0,5.0,34,0.00,,,0.00,306,Wunderground v.1.15,2013-09-06 19:00:00,
2013-09-06 13:05:00,88.1,56.2,29.59,SE,136,3.0,5.0,34,0.00,,,0.00,338,Wunderground v.1.15,2013-09-06 19:05:00,
2013-09-06 13:10:00,88.4,57.3,29.58,East,99,2.0,2.0,35,0.00,,,0.00,278,Wunderground v.1.15,2013-09-06 19:10:00,
2013-09-06 13:15:00,88.5,56.6,29.58,WNW,297,2.0,2.0,34,0.00,,,0.00,236,Wunderground v.1.15,2013-09-06 19:15:00,
2013-09-06 13:20:00,87.1,55.3,29.59,SW,229,2.0,4.0,34,0.00,,,0.00,178,Wunderground v.1.15,2013-09-06 19:20:00,
2013-09-06 13:30:00,85.4,52.2,29.61,WSW,237,4.0,7.0,32,0.00,,,0.00,162,Wunderground v.1.15,2013-09-06 19:30:00,
2013-09-06 13:35:00,84.9,45.1,29.61,WSW,239,6.0,10.0,25,0.00,,,0.00,214,Wunderground v.1.15,2013-09-06 19:35:00,
2013-09-06 13:40:00,84.2,44.6,29.61,West,261,8.0,11.0,25,0.00,,,0.00,229,Wunderground v.1.15,2013-09-06 19:40:00,
2013-09-06 13:50:00,83.4,45.9,29.62,SSW,206,9.0,10.0,27,0.00,,,0.00,148,Wunderground v.1.15,2013-09-06 19:50:00,
2013-09-06 14:00:00,82.6,46.2,29.64,SW,226,10.0,10.0,28,0.00,,,0.00,207,Wunderground v.1.15,2013-09-06 20:00:00,
2013-09-06 14:05:00,81.8,46.4,29.63,SSW,212,10.0,10.0,29,0.00,,,0.00,243,Wunderground v.1.15,2013-09-06 20:05:00,
2013-09-06 14:10:00,80.2,47.7,29.62,South,185,10.0,10.0,32,0.00,,,0.00,272,Wunderground v.1.15,2013-09-06 20:10:00,
2013-09-06 14:15:00,79.4,47.8,29.61,SSW,197,7.0,10.0,33,0.00,,,0.00,195,Wunderground v.1.15,2013-09-06 20:15:00,
2013-09-06 14:25:00,79.2,48.4,29.61,SW,229,4.0,5.0,34,0.00,,,0.00,186,Wunderground v.1.15,2013-09-06 20:25:00,
2013-09-06 14:30:00,79.3,46.9,29.61,SW,219,4.0,5.0,32,0.00,,,0.00,250,Wunderground v.1.15,2013-09-06 20:30:00,
2013-09-06 14:40:00,79.7,46.4,29.61,WSW,243,4.0,7.0,31,0.00,,,0.00,172,Wunderground v.1.15,2013-09-06 20:40:00,
2013-09-06 14:50:00,80.0,46.6,29.61,SSW,208,5.0,5.0,31,0.00,,,0.00,204,Wunderground v.1.15,2013-09-06 20:50:00,
2013-09-06 15:00:00,80.2,48.5,29.61,SE,140,5.0,10.0,33,0.00,,,0.00,209,Wunderground v.1.15,2013-09-06 21:00:00,
2013-09-06 15:05:00,80.1,48.4,29.60,South,185,7.0,10.0,33,0.00,,,0.00,257,Wunderground v.1.15,2013-09-06 21:05:00,
2013-09-06 15:10:00,80.7,48.1,29.59,SSE,167,9.0,9.0,32,0.00,,,0.00,246,Wunderground v.1.15,2013-09-06 21:10:00,
2013-09-06 15:15:00,80.8,47.3,29.59,SSW,206,9.0,13.0,31,0.00,,,0.00,294,Wunderground v.1.15,2013-09-06 21:15:00,
2013-09-06 15:20:00,81.2,46.8,29.59,South,175,9.0,9.0,30,0.00,,,0.00,309,Wunderground v.1.15,2013-09-06 21:20:00,
2013-09-06 15:30:00,83.0,46.5,29.58,South,175,7.0,7.0,28,0.00,,,0.00,325,Wunderground v.1.15,2013-09-06 21:30:00,
2013-09-06 15:35:00,84.0,47.4,29.58,ESE,122,6.0,14.0,28,0.00,,,0.00,559,Wunderground v.1.15,2013-09-06 21:35:00,
2013-09-06 15:45:00,83.7,47.1,29.58,South,185,9.0,13.0,28,0.00,,,0.00,214,Wunderground v.1.15,2013-09-06 21:45:00,
2013-09-06 15:50:00,83.3,47.7,29.58,SSE,160,8.0,8.0,29,0.00,,,0.00,206,Wunderground v.1.15,2013-09-06 21:50:00,
2013-09-06 15:55:00,83.2,47.6,29.58,South,189,8.0,8.0,29,0.00,,,0.00,190,Wunderground v.1.15,2013-09-06 21:55:00,
2013-09-06 16:05:00,83.1,47.5,29.58,SSW,204,7.0,8.0,29,0.00,,,0.00,107,Wunderground v.1.15,2013-09-06 22:05:00,
2013-09-06 16:10:00,82.9,47.4,29.58,SW,228,6.0,6.0,29,0.00,,,0.00,83,Wunderground v.1.15,2013-09-06 22:10:00,
2013-09-06 16:15:00,82.7,48.1,29.58,SSE,160,6.0,6.0,30,0.00,,,0.00,67,Wunderground v.1.15,2013-09-06 22:15:00,
2013-09-06 16:25:00,82.1,47.6,29.58,ESE,122,9.0,13.0,30,0.00,,,0.00,54,Wunderground v.1.15,2013-09-06 22:25:00,
2013-09-06 16:30:00,81.7,46.3,29.58,SE,134,11.0,19.0,29,0.00,,,0.00,83,Wunderground v.1.15,2013-09-06 22:30:00,
2013-09-06 16:40:00,80.9,45.7,29.58,SE,134,11.0,12.0,29,0.00,,,0.00,76,Wunderground v.1.15,2013-09-06 22:40:00,
2013-09-06 16:45:00,80.2,46.8,29.59,South,185,13.0,18.0,31,0.00,,,0.00,144,Wunderground v.1.15,2013-09-06 22:45:00,
2013-09-06 16:55:00,77.2,48.2,29.58,SSE,164,11.0,18.0,36,0.00,,,0.00,160,Wunderground v.1.15,2013-09-06 22:55:00,
2013-09-06 17:00:00,77.3,48.3,29.58,South,191,8.0,8.0,36,0.00,,,0.00,188,Wunderground v.1.15,2013-09-06 23:00:00,
2013-09-06 17:10:00,78.1,47.4,29.57,South,180,9.0,9.0,34,0.00,,,0.00,251,Wunderground v.1.15,2013-09-06 23:10:00,
2013-09-06 17:20:00,79.6,47.1,29.58,WSW,247,9.0,9.0,32,0.00,,,0.00,172,Wunderground v.1.15,2013-09-06 23:20:00,
2013-09-06 17:25:00,80.0,46.6,29.58,WSW,246,9.0,9.0,31,0.00,,,0.00,179,Wunderground v.1.15,2013-09-06 23:25:00,
2013-09-06 17:35:00,80.6,47.2,29.58,WSW,251,9.0,14.0,31,0.00,,,0.00,315,Wunderground v.1.15,2013-09-06 23:35:00,
2013-09-06 17:40:00,80.8,47.3,29.58,WSW,241,9.0,12.0,31,0.00,,,0.00,141,Wunderground v.1.15,2013-09-06 23:40:00,
2013-09-06 17:45:00,80.9,47.4,29.59,SW,224,9.0,12.0,31,0.00,,,0.00,221,Wunderground v.1.15,2013-09-06 23:45:00,
2013-09-06 17:50:00,81.0,47.5,29.58,SW,229,9.0,12.0,31,0.00,,,0.00,171,Wunderground v.1.15,2013-09-06 23:50:00,
2013-09-06 18:00:00,80.9,48.3,29.58,SW,231,9.0,12.0,32,0.00,,,0.00,114,Wunderground v.1.15,2013-09-07 00:00:00,
2013-09-06 18:10:00,80.9,48.3,29.58,West,269,8.0,11.0,32,0.00,,,0.00,79,Wunderground v.1.15,2013-09-07 00:10:00,
2013-09-06 18:15:00,80.8,48.2,29.59,South,185,6.0,11.0,32,0.00,,,0.00,70,Wunderground v.1.15,2013-09-07 00:15:00,
2013-09-06 18:20:00,80.7,48.9,29.59,West,267,5.0,7.0,33,0.00,,,0.00,67,Wunderground v.1.15,2013-09-07 00:20:00,
2013-09-06 18:25:00,80.5,48.7,29.59,West,265,6.0,8.0,33,0.00,,,0.00,65,Wunderground v.1.15,2013-09-07 00:25:00,
2013-09-06 18:35:00,80.5,48.7,29.59,WSW,237,8.0,13.0,33,0.00,,,0.00,51,Wunderground v.1.15,2013-09-07 00:35:00,
2013-09-06 18:45:00,80.5,48.7,29.59,WNW,287,7.0,11.0,33,0.00,,,0.00,40,Wunderground v.1.15,2013-09-07 00:45:00,
2013-09-06 18:50:00,80.3,48.6,29.59,SW,220,6.0,8.0,33,0.00,,,0.00,33,Wunderground v.1.15,2013-09-07 00:50:00,
2013-09-06 18:55:00,80.1,48.4,29.59,SSW,210,8.0,8.0,33,0.00,,,0.00,28,Wunderground v.1.15,2013-09-07 00:55:00,
2013-09-06 19:05:00,79.8,48.1,29.59,SE,137,8.0,9.0,33,0.00,,,0.00,14,Wunderground v.1.15,2013-09-07 01:05:00,
2013-09-06 19:10:00,79.6,48.0,29.59,SW,231,8.0,8.0,33,0.00,,,0.00,9,Wunderground v.1.15,2013-09-07 01:10:00,
2013-09-06 19:15:00,79.4,47.8,29.59,SE,145,9.0,9.0,33,0.00,,,0.00,5,Wunderground v.1.15,2013-09-07 01:15:00,
2013-09-06 19:20:00,79.3,47.7,29.59,South,175,10.0,14.0,33,0.00,,,0.00,5,Wunderground v.1.15,2013-09-07 01:20:00,
2013-09-06 19:30:00,79.0,48.2,29.61,SW,227,13.0,13.0,34,0.00,,,0.00,0,Wunderground v.1.15,2013-09-07 01:30:00,
2013-09-06 19:35:00,77.8,48.7,29.62,SW,224,16.0,19.0,36,0.00,,,0.00,0,Wunderground v.1.15,2013-09-07 01:35:00,
2013-09-06 19:45:00,76.0,47.8,29.63,South,185,18.0,18.0,37,0.00,,,0.00,0,Wunderground v.1.15,2013-09-07 01:45:00,
2013-09-06 19:50:00,74.8,47.5,29.62,SSE,167,18.0,21.0,38,0.00,,,0.00,0,Wunderground v.1.15,2013-09-07 01:50:00,
2013-09-06 20:00:00,73.3,47.5,29.61,SSE,160,17.0,17.0,40,0.00,,,0.00,0,Wunderground v.1.15,2013-09-07 02:00:00,
2013-09-06 20:05:00,72.9,47.8,29.62,SSE,149,19.0,26.0,41,0.00,,,0.00,0,Wunderground v.1.15,2013-09-07 02:05:00,
2013-09-06 20:10:00,72.6,47.5,29.59,SE,146,18.0,18.0,41,0.00,,,0.00,0,Wunderground v.1.15,2013-09-07 02:10:00,
2013-09-06 20:20:00,72.9,47.2,29.59,SW,235,14.0,14.0,40,0.00,,,0.00,0,Wunderground v.1.15,2013-09-07 02:20:00,
2013-09-06 20:30:00,74.0,47.5,29.61,ESE,122,11.0,19.0,39,0.00,,,0.00,0,Wunderground v.1.15,2013-09-07 02:30:00,
2013-09-06 20:35:00,73.0,47.9,29.62,SSW,204,12.0,19.0,41,0.00,,,0.00,0,Wunderground v.1.15,2013-09-07 02:35:00,
2013-09-06 20:40:00,72.4,48.0,29.62,ESE,104,14.0,15.0,42,0.00,,,0.00,0,Wunderground v.1.15,2013-09-07 02:40:00,
2013-09-06 20:45:00,72.4,47.4,29.62,SE,133,15.0,15.0,41,0.00,,,0.00,0,Wunderground v.1.15,2013-09-07 02:45:00,
2013-09-06 20:50:00,72.4,48.0,29.63,East,96,14.0,14.0,42,0.00,,,0.00,0,Wunderground v.1.15,2013-09-07 02:50:00,
2013-09-06 21:00:00,72.0,47.6,29.63,ESE,116,12.0,14.0,42,0.00,,,0.00,0,Wunderground v.1.15,2013-09-07 03:00:00,
2013-09-06 21:05:00,71.9,47.6,29.64,SE,129,11.0,14.0,42,0.00,,,0.00,0,Wunderground v.1.15,2013-09-07 03:05:00,
2013-09-06 21:10:00,71.9,47.6,29.64,SSE,151,13.0,13.0,42,0.00,,,0.00,0,Wunderground v.1.15,2013-09-07 03:10:00,
2013-09-06 21:15:00,72.0,47.6,29.64,East,100,13.0,15.0,42,0.00,,,0.00,0,Wunderground v.1.15,2013-09-07 03:15:00,
2013-09-06 21:25:00,71.9,47.6,29.63,SSE,165,10.0,13.0,42,0.00,,,0.00,0,Wunderground v.1.15,2013-09-07 03:25:00,
2013-09-06 21:35:00,72.0,47.6,29.63,SSE,151,10.0,10.0,42,0.00,,,0.00,0,Wunderground v.1.15,2013-09-07 03:35:00,
2013-09-06 21:40:00,71.9,47.6,29.64,SSE,158,9.0,9.0,42,0.00,,,0.00,0,Wunderground v.1.15,2013-09-07 03:40:00,
2013-09-06 21:50:00,71.8,47.5,29.64,South,175,9.0,9.0,42,0.00,,,0.00,0,Wunderground v.1.15,2013-09-07 03:50:00,
2013-09-06 22:00:00,71.8,47.5,29.64,SW,215,9.0,9.0,42,0.00,,,0.00,0,Wunderground v.1.15,2013-09-07 04:00:00,
2013-09-06 22:05:00,71.8,47.5,29.63,SSW,193,9.0,11.0,42,0.00,,,0.00,0,Wunderground v.1.15,2013-09-07 04:05:00,
2013-09-06 22:10:00,71.6,47.9,29.63,SSE,160,9.0,13.0,43,0.00,,,0.00,0,Wunderground v.1.15,2013-09-07 04:10:00,
2013-09-06 22:15:00,71.3,47.6,29.63,SSE,162,9.0,13.0,43,0.00,,,0.00,0,Wunderground v.1.15,2013-09-07 04:15:00,
2013-09-06 22:20:00,71.3,47.6,29.64,SSW,194,8.0,11.0,43,0.00,,,0.00,0,Wunderground v.1.15,2013-09-07 04:20:00,
2013-09-06 22:25:00,71.4,47.1,29.63,SSE,165,8.0,11.0,42,0.00,,,0.00,0,Wunderground v.1.15,2013-09-07 04:25:00,
2013-09-06 22:35:00,71.9,46.9,29.64,SSE,163,7.0,8.0,41,0.00,,,0.00,0,Wunderground v.1.15,2013-09-07 04:35:00,
2013-09-06 22:40:00,72.0,47.0,29.63,ESE,120,7.0,7.0,41,0.00,,,0.00,0,Wunderground v.1.15,2013-09-07 04:40:00,
2013-09-06 22:45:00,72.0,47.0,29.63,SE,145,8.0,8.0,41,0.00,,,0.00,0,Wunderground v.1.15,2013-09-07 04:45:00,
2013-09-06 22:55:00,71.5,47.2,29.63,SSE,149,6.0,10.0,42,0.00,,,0.00,0,Wunderground v.1.15,2013-09-07 04:55:00,
2013-09-06 23:00:00,71.9,46.9,29.63,South,175,6.0,6.0,41,0.00,,,0.00,0,Wunderground v.1.15,2013-09-07 05:00:00,
2013-09-06 23:05:00,72.0,47.0,29.63,South,175,6.0,6.0,41,0.00,,,0.00,0,Wunderground v.1.15,2013-09-07 05:05:00,
2013-09-06 23:15:00,72.5,46.8,29.63,SSW,205,8.0,8.0,40,0.00,,,0.00,0,Wunderground v.1.15,2013-09-07 05:15:00,
2013-09-06 23:25:00,72.7,47.0,29.63,ESE,110,7.0,11.0,40,0.00,,,0.00,0,Wunderground v.1.15,2013-09-07 05:25:00,
2013-09-06 23:30:00,73.1,46.7,29.64,SSE,147,8.0,8.0,39,0.00,,,0.00,0,Wunderground v.1.15,2013-09-07 05:30:00,
2013-09-06 23:40:00,73.4,46.9,29.63,SSW,211,7.0,8.0,39,0.00,,,0.00,0,Wunderground v.1.15,2013-09-07 05:40:00,
2013-09-06 23:55:00,73.2,46.8,29.63,South,175,7.0,7.0,39,0.00,,,0.00,0,Wunderground v.1.15,2013-09-07 05:55:00,